This demonstration page uses our WeatherBlox Daily Observations layout. Learn more.

Hourly Observations for June 21, 2015

Temp ( °F °C ) Dew Point ( °F °C ) Humidity (%) Winds ( mph kmh ) Pressure ( in mb ) Visibility ( mi km ) Precip ( " mm )
12:15 am 00:15 Clear 64 18 63 17 94 94 NNE 3 6 29.88 1012 10 16.09344 0 0
12:35 am 00:35 Clear 64 18 61 16 88 88 NNE 3 6 29.91 1013 10 16.09344 0 0
12:55 am 00:55 Clear 64 18 61 16 88 88 NNE 3 6 29.91 1013 10 16.09344 0 0
1:15 am 01:15 Clear 64 18 61 16 88 88 NNE 7 11 29.91 1013 10 16.09344 0 0
1:35 am 01:35 Clear 64 18 63 17 94 94 NE 6 9 29.91 1013 10 16.09344 0 0
1:55 am 01:55 Clear 64 18 63 17 94 94 ENE 6 9 29.91 1013 10 16.09344 0 0
2:15 am 02:15 Clear 66 19 63 17 88 88 E 5 7 29.85 1011 10 16.09344 0 0
2:35 am 02:35 Clear 64 18 61 16 88 88 ENE 6 9 29.88 1012 10 16.09344 0 0
2:55 am 02:55 Clear 64 18 61 16 88 88 E 5 7 29.85 1011 10 16.09344 0 0
3:15 am 03:15 Clear 64 18 61 16 88 88 E 3 6 29.88 1012 10 16.09344 0 0
3:35 am 03:35 Clear 64 18 61 16 88 88 ESE 5 7 29.85 1011 10 16.09344 0 0
3:55 am 03:55 Clear 63 17 59 15 88 88 E 3 6 29.85 1011 10 16.09344 0 0
4:15 am 04:15 Clear 64 18 61 16 88 88 E 5 7 29.85 1011 10 16.09344 0 0
4:35 am 04:35 Clear 64 18 61 16 88 88 ESE 5 7 29.85 1011 10 16.09344 0 0
4:55 am 04:55 Clear 63 17 59 15 88 88 E 5 7 29.85 1011 10 16.09344 0 0
5:15 am 05:15 Clear 64 18 61 16 88 88 E 5 7 29.85 1011 10 16.09344 0 0
5:35 am 05:35 Clear 64 18 61 16 88 88 ESE 6 9 29.83 1010 10 16.09344 0 0
5:55 am 05:55 Clear 63 17 61 16 94 94 ESE 6 9 29.83 1010 10 16.09344 0 0
6:15 am 06:15 Sunny 64 18 61 16 88 88 ESE 3 6 29.83 1010 10 16.09344 0 0
6:35 am 06:35 Partly Cloudy 64 18 61 16 88 88 NNE 7 11 29.88 1012 10 16.09344 0 0
6:55 am 06:55 Mostly Cloudy 64 18 63 17 94 94 NNE 20 31 29.91 1013 10 16.09344 0 0
7:15 am 07:15 Cloudy 68 20 63 17 83 83 NE 16 26 29.88 1012 10 16.09344 0 0
7:35 am 07:35 Cloudy 68 20 64 18 88 88 ENE 15 24 29.88 1012 10 16.09344 0 0
7:55 am 07:55 Cloudy 68 20 64 18 88 88 ENE 14 22 29.88 1012 10 16.09344 0 0
8:15 am 08:15 Partly Cloudy 70 21 64 18 83 83 ENE 13 20 29.88 1012 10 16.09344 0 0
8:35 am 08:35 Partly Cloudy 70 21 64 18 83 83 ENE 15 24 29.91 1013 10 16.09344 0 0
8:55 am 08:55 Mostly Cloudy 70 21 64 18 83 83 NNE 15 24 29.94 1014 10 16.09344 0 0
9:15 am 09:15 Cloudy 70 21 64 18 83 83 NE 15 24 29.91 1013 10 16.09344 0 0
9:35 am 09:35 Partly Cloudy 70 21 63 17 78 78 NE 10 17 29.91 1013 10 16.09344 0 0
9:55 am 09:55 Sunny 68 20 63 17 83 83 ENE 12 19 29.91 1013 10 16.09344 0 0
10:15 am 10:15 Sunny 68 20 63 17 83 83 E 5 7 29.91 1013 10 16.09344 0 0
10:35 am 10:35 Sunny 70 21 63 17 78 78 SE 28 44 29.8 1009 10 16.09344 0 0
10:55 am 10:55 Sunny 73 23 61 16 65 65 SSE 28 44 29.74 1007 10 16.09344 0 0
11:15 am 11:15 Sunny with Nearby Thunderstorms 75 24 61 16 61 61 ESE 14 22 29.8 1009 10 16.09344 0 0
11:35 am 11:35 Sunny 77 25 61 16 57 57 ENE 13 20 29.83 1010 10 16.09344 0 0
11:55 am 11:55 Sunny 79 26 63 17 58 58 NE 12 19 29.83 1010 10 16.09344 0 0
12:10 pm 12:10 Sunny 79 26 63 17 58 58 ENE 10 17 29.83 1010 10 16.09344 0 0
1:55 pm 13:55 undefined 81 27 64 18 58 58 ESE 8 13 29.77 1008 10 16.09344 0 0
2:15 pm 14:15 Sunny 81 27 66 19 62 62 E 10 17 29.77 1008 10 16.09344 0 0
2:35 pm 14:35 Sunny 82 28 66 19 58 58 SE 8 13 29.77 1008 10 16.09344 0 0
2:55 pm 14:55 Sunny 82 28 68 20 62 62 E 10 17 29.77 1008 10 16.09344 0 0
3:15 pm 15:15 Partly Cloudy 84 29 68 20 58 58 SE 8 13 29.77 1008 10 16.09344 0 0
3:35 pm 15:35 Partly Cloudy 82 28 68 20 62 62 SSE 8 13 29.77 1008 10 16.09344 0 0
3:55 pm 15:55 Partly Cloudy 84 29 70 21 62 62 SE 6 9 29.77 1008 10 16.09344 0 0
4:15 pm 16:15 Partly Cloudy 84 29 70 21 62 62 SSE 7 11 29.74 1007 10 16.09344 0 0
4:35 pm 16:35 Partly Cloudy 84 29 70 21 62 62 SSE 8 13 29.74 1007 10 16.09344 0 0
4:55 pm 16:55 Partly Cloudy 84 29 68 20 58 58 S 7 11 29.74 1007 10 16.09344 0 0
5:15 pm 17:15 Sunny 86 30 70 21 59 59 SE 8 13 29.71 1006 10 16.09344 0 0
5:35 pm 17:35 Sunny 86 30 70 21 59 59 SE 9 15 29.68 1005 10 16.09344 0 0
5:55 pm 17:55 Sunny 86 30 70 21 59 59 ESE 7 11 29.68 1005 10 16.09344 0 0
6:15 pm 18:15 Sunny 86 30 72 22 62 62 ESE 10 17 29.65 1004 10 16.09344 0 0
6:35 pm 18:35 Sunny 86 30 72 22 62 62 ESE 9 15 29.65 1004 10 16.09344 0 0
6:55 pm 18:55 Sunny 86 30 72 22 62 62 ESE 10 17 29.65 1004 10 16.09344 0 0
7:15 pm 19:15 Sunny 86 30 72 22 62 62 E 10 17 29.65 1004 10 16.09344 0 0
7:35 pm 19:35 Sunny 84 29 73 23 70 70 ESE 13 20 29.65 1004 10 16.09344 0 0
7:55 pm 19:55 Sunny 84 29 73 23 70 70 E 13 20 29.65 1004 10 16.09344 0 0
8:15 pm 20:15 Sunny 82 28 73 23 74 74 E 9 15 29.65 1004 10 16.09344 0 0
8:35 pm 20:35 Sunny 82 28 73 23 74 74 E 9 15 29.65 1004 10 16.09344 0 0
8:55 pm 20:55 Sunny 81 27 73 23 79 79 E 8 13 29.65 1004 10 16.09344 0 0
9:15 pm 21:15 Clear 79 26 73 23 84 84 E 9 15 29.65 1004 10 16.09344 0 0
9:35 pm 21:35 Clear 79 26 73 23 84 84 E 9 15 29.65 1004 10 16.09344 0 0
9:55 pm 21:55 Clear 77 25 73 23 89 89 E 7 11 29.65 1004 10 16.09344 0 0
10:15 pm 22:15 Clear 77 25 73 23 89 89 E 8 13 29.65 1004 10 16.09344 0 0
10:35 pm 22:35 Clear 77 25 73 23 89 89 SE 7 11 29.65 1004 10 16.09344 0 0
10:55 pm 22:55 Clear 77 25 72 22 83 83 SE 7 11 29.65 1004 10 16.09344 0 0
11:15 pm 23:15 Clear 77 25 72 22 83 83 SSE 7 11 29.65 1004 10 16.09344 0 0
11:35 pm 23:35 Clear 79 26 70 21 74 74 S 8 13 29.65 1004 10 16.09344 0 0
11:55 pm 23:55 Clear 79 26 66 19 65 65 S 13 20 29.65 1004 10 16.09344 0 0

Powered by AerisWeather